This demonstration page uses our WeatherBlox Daily Observations layout. Learn more.

Hourly Observations for December 20, 2016

Temp ( °F °C ) Dew Point ( °F °C ) Humidity (%) Winds ( mph kmh ) Pressure ( in mb ) Visibility ( mi km ) Precip ( " mm )
12:15 am 00:15 Clear 27 -2.9 17 -8.4 66 66 SW 14 22 30.24 1024 10 16.0934 0 0
12:35 am 00:35 Clear 27 -2.7 17 -8.3 66 66 SW 13 20 30.24 1024 10 16.0934 0 0
12:55 am 00:55 Clear 27 -3 17 -8.2 68 68 SW 9 15 30.24 1024 10 16.0934 0 0
1:15 am 01:15 Clear 26 -3.1 17 -8.2 68 68 SW 7 11 30.24 1024 10 16.0934 0 0
1:35 am 01:35 Clear 26 -3.1 17 -8.1 69 69 SW 9 15 30.27 1025 10 16.0934 0 0
1:55 am 01:55 Clear 27 -2.6 18 -8 67 67 SW 8 13 30.27 1025 10 16.0934 0 0
2:15 am 02:15 Clear 27 -2.9 17 -8.1 68 68 WSW 8 13 30.27 1025 10 16.0934 0 0
2:35 am 02:35 Clear 27 -2.7 17 -8.4 65 65 W 9 15 30.27 1025 10 16.0934 0 0
2:55 am 02:55 Clear 27 -2.8 17 -8.6 65 65 W 9 15 30.27 1025 10 16.0934 0 0
3:15 am 03:15 Clear 26 -3.5 16 -9 66 66 W 10 17 30.27 1025 10 16.0934 0 0
3:35 am 03:35 Clear 26 -3.5 16 -9 66 66 W 9 15 30.27 1025 10 16.0934 0 0
3:55 am 03:55 Clear 26 -3.3 15 -9.2 64 64 W 7 11 30.27 1025 10 16.0934 0 0
4:15 am 04:15 Clear 27 -2.9 16 -9 63 63 WNW 9 15 30.27 1025 10 16.0934 0 0
4:35 am 04:35 Clear 27 -2.7 16 -8.8 63 63 WNW 8 13 30.3 1026 10 16.0934 0 0
4:55 am 04:55 Clear 26 -3.6 16 -8.7 68 68 NW 9 15 30.3 1026 10 16.0934 0 0
5:15 am 05:15 Clear 31 -0.7 20 -6.6 65 65 NW 10 17 30.27 1025 10 16.0934 0 0
5:35 am 05:35 Clear 34 0.9 20 -6.7 57 57 NW 9 15 30.3 1026 10 16.0934 0 0
5:55 am 05:55 Clear 33 0.4 20 -6.9 58 58 NW 9 15 30.3 1026 10 16.0934 0 0
6:15 am 06:15 Clear 30 -1.2 19 -7.1 65 65 NW 8 13 30.3 1026 10 16.0934 0 0
6:35 am 06:35 Clear 30 -0.9 19 -7.1 63 63 NW 6 9 30.3 1026 10 16.0934 0 0
6:55 am 06:55 Clear 29 -1.7 19 -7.5 65 65 NW 9 15 30.36 1028 10 16.0934 0 0
7:15 am 07:15 Clear 28 -2.1 19 -7.3 68 68 NW 7 11 30.36 1028 10 16.0934 0 0
7:35 am 07:35 Clear 29 -1.6 19 -7.3 65 65 NNW 5 7 30.39 1029 10 16.0934 0 0
7:55 am 07:55 Clear 26 -3.1 18 -8 69 69 NNW 3 6 30.36 1028 10 16.0934 0 0
8:15 am 08:15 Sunny 27 -2.6 19 -7.5 69 69 NNW 5 7 30.36 1028 10 16.0934 0 0
8:35 am 08:35 Sunny 28 -2.4 19 -7.1 70 70 NW 7 11 30.39 1029 10 16.0934 0 0
8:55 am 08:55 Sunny 29 -1.9 20 -6.8 70 70 NNW 6 9 30.39 1029 10 16.0934 0 0
9:15 am 09:15 Sunny 32 -0.1 20 -6.6 62 62 NNW 5 7 30.36 1028 10 16.0934 0 0
9:35 am 09:35 Sunny 33 0.5 22 -5.6 64 64 Calm 30.36 1028 10 16.0934 0 0
9:55 am 09:55 Sunny 35 1.8 23 -5 61 61 Calm 30.36 1028 10 16.0934 0 0
10:15 am 10:15 Sunny 36 2.3 23 -4.9 59 59 Calm 30.33 1027 10 16.0934 0 0
10:35 am 10:35 Sunny 40 4.6 22 -5.7 48 48 Calm 30.33 1027 10 16.0934 0 0
10:55 am 10:55 Sunny 42 5.8 22 -5.5 44 44 Calm 30.3 1026 10 16.0934 0 0
11:15 am 11:15 Sunny 44 6.5 21 -6.1 40 40 Calm 30.33 1027 10 16.0934 0 0
11:35 am 11:35 Sunny 46 7.6 18 -7.6 33 33 Calm 30.33 1027 10 16.0934 0 0
11:55 am 11:55 Sunny 46 8 18 -7.8 32 32 Calm 30.3 1026 10 16.0934 0 0
12:15 pm 12:15 Sunny 47 8.1 17 -8.2 31 31 Calm 30.3 1026 10 16.0934 0 0
12:35 pm 12:35 Sunny 47 8.5 17 -8.3 30 30 Calm 30.27 1025 10 16.0934 0 0
12:50 pm 12:50 Sunny 47 8.5 16 -8.9 28 28 Calm 30.24 1024 10 16.0934 0 0
1:15 pm 13:15 Sunny 47 8.5 17 -8.5 29 29 Calm 30.24 1024 10 16.0934 0 0
1:35 pm 13:35 Sunny 49 9.3 18 -7.7 30 30 SSW 6 9 30.24 1024 10 16.0934 0 0
1:55 pm 13:55 Sunny 49 9.6 20 -6.8 31 31 SW 6 9 30.21 1023 10 16.0934 0 0
2:15 pm 14:15 Sunny 47 8.5 20 -6.5 34 34 SSW 9 15 30.21 1023 10 16.0934 0 0
2:35 pm 14:35 Sunny 48 9 20 -6.9 32 32 SW 7 11 30.18 1022 10 16.0934 0 0
2:55 pm 14:55 Sunny 47 8.5 19 -7.3 32 32 SSW 8 13 30.18 1022 10 16.0934 0 0
3:15 pm 15:15 Sunny 47 8.6 19 -7.4 32 32 S 9 15 30.18 1022 10 16.0934 0 0
3:35 pm 15:35 Sunny 47 8.3 18 -7.9 31 31 S 9 15 30.15 1021 10 16.0934 0 0
3:55 pm 15:55 Sunny 47 8.1 16 -9.1 29 29 S 9 15 30.15 1021 10 16.0934 0 0
4:15 pm 16:15 Sunny 46 7.5 16 -9 30 30 S 7 11 30.15 1021 10 16.0934 0 0
4:35 pm 16:35 Sunny 43 6.3 17 -8.6 34 34 S 6 9 30.18 1022 10 16.0934 0 0
4:55 pm 16:55 Sunny 42 5.4 17 -8.6 36 36 S 6 9 30.18 1022 10 16.0934 0 0
5:15 pm 17:15 Clear 41 5 17 -8.1 39 39 S 5 7 30.18 1022 10 16.0934 0 0
5:35 pm 17:35 Clear 41 5.2 17 -8.5 37 37 SSW 8 13 30.18 1022 10 16.0934 0 0
5:55 pm 17:55 Clear 41 5 17 -8.4 38 38 SSW 9 15 30.18 1022 10 16.0934 0 0
6:15 pm 18:15 Clear 40 4.5 17 -8.6 38 38 S 8 13 30.18 1022 10 16.0934 0 0
6:35 pm 18:35 Clear 36 2.4 16 -8.7 44 44 S 9 15 30.21 1023 10 16.0934 0 0
6:55 pm 18:55 Clear 37 2.8 17 -8.5 44 44 S 9 15 30.21 1023 10 16.0934 0 0
7:15 pm 19:15 Clear 36 2.1 17 -8.3 46 46 S 7 11 30.21 1023 10 16.0934 0 0
7:35 pm 19:35 Clear 35 1.6 18 -7.7 50 50 S 6 9 30.21 1023 10 16.0934 0 0
7:55 pm 19:55 Clear 35 1.8 19 -7.3 51 51 S 8 13 30.21 1023 10 16.0934 0 0
8:15 pm 20:15 Clear 37 2.9 19 -7.1 48 48 S 14 22 30.18 1022 10 16.0934 0 0
8:35 pm 20:35 Clear 37 2.6 19 -7.1 49 49 S 14 22 30.18 1022 10 16.0934 0 0
8:55 pm 20:55 Clear 37 2.7 19 -7 49 49 S 13 20 30.18 1022 10 16.0934 0 0
9:15 pm 21:15 Clear 37 2.8 20 -6.8 50 50 S 14 22 30.15 1021 10 16.0934 0 0
9:35 pm 21:35 Clear 37 2.7 20 -6.8 50 50 S 14 22 30.15 1021 10 16.0934 0 0
9:55 pm 21:55 Clear 37 2.5 20 -6.8 51 51 SSW 13 20 30.15 1021 10 16.0934 0 0
10:15 pm 22:15 Clear 35 1.7 20 -6.8 54 54 S 13 20 30.15 1021 10 16.0934 0 0
10:35 pm 22:35 Clear 36 2 20 -6.6 53 53 SSW 14 22 30.12 1020 10 16.0934 0 0
10:55 pm 22:55 Clear 37 2.8 20 -6.5 51 51 SSW 16 26 30.12 1020 10 16.0934 0 0
11:15 pm 23:15 Clear 37 3 21 -6.3 51 51 SSW 17 28 30.09 1019 10 16.0934 0 0
11:30 pm 23:30 Clear 38 3.3 21 -6.2 50 50 SSW 17 28 30.06 1018 10 16.0934 0 0
11:55 pm 23:55 Clear 38 3.1 21 -6 52 52 SSW 15 24 30.06 1018 10 16.0934 0 0

Powered by AerisWeather